Orbital Elements at Epoch 2459200.5 (2020-Dec-17.0) TDB
Reference: JPL 20 (heliocentric ecliptic J2000)
Element | Value | Uncertainty (1-sigma) | Units |
e | .2808751584951564 | 4.25e-08 | |
a | 3.114316379486514 | 2.1141e-08 | au |
q | 2.239582272794178 | 1.3267e-07 | au |
i | 14.50978107911118 | 6.012e-06 | deg |
node | 202.0240611042894 | 1.6554e-05 | deg |
peri | 130.6138711220082 | 1.9318e-05 | deg |
M | 167.4682619400639 | 9.5567e-06 | deg |
tp | 2458266.659867791031 (2018-May-28.15986779) | 5.191e-05 | TDB |
period | 2007.439760230789 5.50 | 2.044e-05 5.596e-08 | d yr |
n | .1793329030997234 | 1.826e-09 | deg/d |
Q | 3.98905048617885 | 2.7079e-08 | au |
|
| | Orbit Determination Parameters
Additional Information
|